Simultaneous Nadir Overpasses (SNOs) Predictions

Prediction of SNOs over PacNW region [( 10.00, 139.50) to ( 22.70, 165.60)] between AQUA and NPP Satellites:

Table of predicted SNOs over PacNW region for the next 30.0 days since TLE Epoch: 6/8/2018
Index Date (AQUA) Time (AQUA) AQUA Lat,Lon Date (NPP) Time (NPP) NPP Lat,Lon Distance(km) Time Diff (sec)
1 06/12/2018 15:10:18 22.62, 159.85 06/12/2018 15:10:56 23.20, 157.30 269.68 38
2 06/20/2018 15:59:41 22.61, 147.50 06/20/2018 16:01:39 23.23, 144.63 301.70 118
3 06/28/2018 15:10:10 22.62, 159.87 06/28/2018 15:10:53 23.19, 157.32 268.82 43




NCC Satellite Simultaneous Nadir Overpasses (SNOs) Prediction Service
